Flag for U.S.A. Weather past 2 weeks in Sunrise, Florida, U.S.A.

Now
75 °F

Clear.


Feels Like: 74 °F
Forecast: 74 / 92 °F
Wind: 6 mph from Southwest

Location: Fort Lauderdale Executive Airport

Current Time: May 22, 2015 at 6:22:29 AM

Latest Report: May 22, 2015 at 5:53 AM


Visibility: 9 mi

Pressure: 30.03 "Hg

Humidity: 90%

Dew point: 72 °F

Location of SunriseLocation

Historic Weather in Sunrise — Graph

°F

Sunrise temperature yesterday

Maximum temperature yesterday: 92 °F (at 12:53 PM)
Minimum temperature yesterday: 75 °F (at 6:53 AM)
Average temperature yesterday: 82 °F

Past Weeks' High & Low Weather Summary

 TemperatureHumidityPressure
High92 °F (May 21, 12:53 PM)100% (May 7, 4:53 AM)30.20 "Hg (May 7, 4:53 AM)
Low66 °F (May 7, 5:53 AM)38% (May 8, 1:53 PM)29.94 "Hg (May 20, 6:53 PM)
Average81 °F72%30.09 "Hg
* Reported May 7 4:53 AM — May 22 4:53 AM, Sunrise, Weather by CustomWeather, © 2015

Note: Actual official high and low records may vary slightly from our data, if they occured in-between our weather recording intervals... More about our weather records

Advertising

Sunrise weather history for previous 24 hours

 ConditionsComfort  
Time TempWeatherWind HumidityBarometerVisibility
4:53 AM
Fri, May 22
75 °FClear.6 mph88%30.01 "Hg10 mi
3:53 AM76 °FClear.No wind85%30.01 "Hg10 mi
2:53 AM78 °FClear.No wind76%30.02 "Hg10 mi
1:53 AM79 °FClear.5 mph74%30.03 "Hg10 mi
12:53 AM78 °FPassing clouds.5 mph79%30.03 "Hg10 mi
11:53 PM
Thu, May 21
81 °FMostly cloudy.5 mph72%30.03 "Hg10 mi
10:53 PM81 °FMostly cloudy.No wind72%30.02 "Hg10 mi
9:53 PM80 °FClear.3 mph71%29.99 "Hg10 mi
8:53 PM81 °FScattered clouds.5 mph72%29.98 "Hg10 mi
7:53 PM83 °FPassing clouds.10 mph68%29.97 "Hg10 mi
6:53 PM86 °FScattered clouds.12 mph63%29.96 "Hg10 mi
5:53 PM87 °FPassing clouds.12 mph59%29.95 "Hg10 mi
4:53 PM87 °FThunderstorms. Scattered clouds.8 mph63%29.96 "Hg10 mi
3:53 PM89 °FScattered clouds.9 mph59%29.96 "Hg10 mi
2:53 PM89 °FScattered clouds.12 mph61%29.96 "Hg10 mi
1:53 PM92 °FScattered clouds.6 mph44%29.98 "Hg10 mi
12:53 PM92 °FScattered clouds.5 mph47%30.00 "Hg10 mi
11:53 AM89 °FPassing clouds.6 mph53%30.01 "Hg10 mi
10:53 AM86 °FPassing clouds.5 mph61%30.02 "Hg10 mi
9:53 AM83 °FSunny.8 mph68%30.01 "Hg10 mi
8:53 AM79 °FPassing clouds.6 mph79%30.00 "Hg7 mi
7:53 AM76 °FScattered clouds.7 mph91%30.00 "Hg10 mi
6:53 AM75 °FPassing clouds.7 mph94%29.99 "Hg10 mi
Weather by CustomWeather, © 2015

See weather overviewHow to use our weather pages